Flag for Germany Weather past 2 weeks in Neuwied, Rhineland-Palatinate, Germany

Now
36 °F

Rain. Fog.


Feels Like: 27 °F
Forecast: 30 / 51 °F
Wind: 13 mph from West

Location: Buechel

Current Time: Apr 2, 2015 at 9:29:53 AM

Latest Report: Apr 2, 2015 at 8:20 AM


Visibility: 3 mi

Pressure: 29.80 "Hg

Humidity: 93%

Dew point: 34 °F

Location of NeuwiedLocation

Historic Weather in Neuwied — Graph

°F

Neuwied temperature yesterday

Maximum temperature yesterday: 41 °F (at 6:20 PM)
Minimum temperature yesterday: 34 °F (at 6:20 AM)
Average temperature yesterday: 37 °F

Past Weeks' High & Low Weather Summary

 TemperatureHumidityPressure
High61 °F (Mar 18, 2:20 PM)100% (Mar 19, 2:20 AM)30.30 "Hg (Mar 19, 2:20 AM)
Low27 °F (Mar 23, 4:20 AM)39% (Mar 18, 2:20 PM)29.36 "Hg (Mar 31, 6:20 AM)
Average41 °F81%29.92 "Hg
* Reported Mar 18 7:20 AM — Apr 2 8:20 AM, Neuwied, Weather by CustomWeather, © 2015

Note: Actual official high and low records may vary slightly from our data, if they occured in-between our weather recording intervals... More about our weather records

Advertising

Neuwied weather history for previous 24 hours

 ConditionsComfort  
Time TempWeatherWind HumidityBarometerVisibility
8:20 AM
Thu, Apr 2
36 °FRain. Fog.13 mph93%29.80 "Hg3 mi
7:49 AM34 °FRain. Fog.15 mph100%29.80 "Hg3 mi
7:20 AM34 °FRain. Fog.14 mph100%29.80 "Hg2 mi
6:20 AM34 °FSnow. Mostly cloudy.12 mph93%29.83 "Hg1 mi
5:49 AM34 °FRain. Fog.14 mph100%29.86 "Hg2 mi
5:20 AM34 °FLight rain. Fog.13 mph100%29.89 "Hg2 mi
4:48 AM34 °FLight rain. Fog.12 mph100%29.92 "Hg2 mi
4:20 AM34 °FLight rain. Partly cloudy.14 mph100%29.92 "Hg4 mi
3:20 AM36 °FChilly.13 mph93%29.95 "Hg3 mi
2:20 AM36 °FChilly.13 mph93%30.01 "Hg3 mi
1:20 AM36 °FChilly.13 mph87%30.04 "Hg6 mi
12:20 AM36 °FChilly.13 mph87%30.07 "Hg6 mi
11:20 PM
Wed, Apr 1
36 °FChilly.12 mph87%30.07 "HgN/A
10:20 PM36 °FPassing clouds.14 mph81%30.09 "HgN/A
9:20 PM37 °FPassing clouds.14 mph75%30.09 "HgN/A
8:20 PM39 °FSnow flurries. Broken clouds.10 mph61%30.09 "Hg5 mi
7:20 PM41 °FBroken clouds.12 mph57%30.09 "HgN/A
6:20 PM41 °FScattered clouds.16 mph57%30.07 "HgN/A
5:20 PM39 °FScattered clouds.17 mph70%30.09 "HgN/A
4:20 PM39 °FScattered showers. Scattered clouds.17 mph70%30.07 "HgN/A
3:54 PM39 °FPartly sunny.18 mph70%30.07 "Hg4 mi
3:20 PM37 °FScattered showers. Scattered clouds.16 mph87%30.07 "HgN/A
2:59 PM37 °FSnow showers. Fog.16 mph81%30.07 "Hg3 mi
2:20 PM34 °FSnow flurries. Fog.16 mph93%30.07 "Hg2 mi
2:00 PM34 °FSnow showers. Broken clouds.15 mph93%30.07 "Hg1 mi
1:20 PM39 °FSnow flurries. Broken clouds.17 mph65%30.07 "Hg6 mi
12:20 PM39 °FSnow flurries. Broken clouds.17 mph65%30.07 "Hg4 mi
11:20 AM39 °FSnow flurries. Broken clouds.22 mph65%30.04 "HgN/A
10:20 AM37 °FBroken clouds.17 mph70%30.04 "HgN/A
9:20 AM34 °FBroken clouds.14 mph87%30.01 "HgN/A
Weather by CustomWeather, © 2015

See weather overviewHow to use our weather pages